Regional Weather Roundup
Issued by NWS

Home | Current Version | Previous Version | Graphics & Text | Print | Product List | Glossary On
Versions: 1 2 3 4 5 6 7 8 9 10 11 12 13 14 15 16 17 18 19 20 21 22 23 24 25 26 27 28 29 30 31 32 33 34 35 36 37 38 39 40 41 42 43 44 45 46 47 48 49 50
000
ASUS43 KMPX 170001
RWRMN
WEATHER ROUNDUP FOR MINNESOTA
NATIONAL WEATHER SERVICE TWIN CITIES/CHANHASSEN MN
600 PM CST TUE JAN 16 2018


NOTE: "FAIR" INDICATES FEW OR NO CLOUDS BELOW 12,000 FEET WITH NO
SIGNIFICANT WEATHER AND/OR OBSTRUCTIONS TO VISIBILITY. N/A MEANS
CURRENT SKY AND/OR WEATHER CONDITIONS ARE NOT AVAILABLE.

MNZ060>063-068>070-170100-
   Twin Cities Metro

CITY           SKY/WX    TMP DP  RH WIND       PRES   REMARKS
TWIN CITIES    FAIR       3  -3  76 SW5       30.61F WCI  -6
6HR MIN TEMP:   3; 6HR MAX TEMP:   8;

ST PAUL        FAIR       4  -4  69 W6        30.63F WCI  -7
CRYSTAL        FAIR       3  -7  63 W6        30.60F WCI  -8
BLAINE         CLEAR      5  -2  72 W6        30.59F WCI  -6
LAKEVILLE      FAIR      -2  -6  84 W5        30.60F WCI -12
EDEN PRAIRIE   FAIR       1  -6  72 SW6       30.60F WCI -10
6HR MIN TEMP:   1; 6HR MAX TEMP:   4;

SOUTH ST PAUL  FAIR       3  -4  71 W5        30.61F WCI  -6
LAKE ELMO      FAIR       5  -2  72 W5        30.59F WCI  -4
$$
MNZ001>005-007-008-013>017-022>024-027-028-170100-
   Northwest Minnesota

CITY           SKY/WX    TMP DP  RH WIND       PRES   REMARKS
BEMIDJI        FAIR       6 -13  41 SW9       30.43F WCI  -8
HALLOCK        FAIR       1  -4  78 S18       30.39F WCI -19
ROSEAU         FAIR       3  -6  66 SW17      30.37F WCI -17
WARROAD        FAIR       3  -8  60 SW15G23   30.36F WCI -15
CROOKSTON      FAIR       1  -6  71 S17       30.48F WCI -19
FOSSTON        FAIR       0  -9  65 S14       30.47F WCI -19
DETROIT LAKES  FAIR       1  -6  71 S7        30.50F WCI -11
MOORHEAD       FAIR       3  -4  72 CALM      30.54F
PARK RAPIDS    FAIR       4  -7  60 SW7       30.48F WCI  -8
MAHNOMEN       FAIR       2  -8  63 S14       30.48F WCI -16
$$
MNZ006-009>011-018-025>026-170100-
   North Central Minnesota

CITY           SKY/WX    TMP DP  RH WIND       PRES   REMARKS
BAUDETTE       FAIR       4  -8  57 SW14      30.36F WCI -14
FLAG ISLAND    FAIR       3  -6  66 SW17      30.32F WCI -17
INTL FALLS     CLOUDY     5  -6  60 SW8       30.38F WCI  -8
6HR MIN TEMP:  -3; 6HR MAX TEMP:   6;

WASKISH        FAIR       5  -6  61 SW7       30.43F WCI  -7
BIG FORK       FAIR       5  -4  66 S7        30.42F WCI  -7
LONGVILLE      FAIR       7  -4  61 SW3       30.47F
GRAND RAPIDS   FAIR       4  -4  69 SW3       30.47F
CRANE LAKE     MOCLDY     7  -2  66 S5        30.42F WCI  -2
ORR            FAIR       7  -4  61 SW5       30.37F WCI  -2
COOK           FAIR       7   0  72 SW6       30.40F WCI  -3
WALKER         FAIR       7  -7  53 SW7       30.46F WCI  -5
$$
MNZ012-019>021-037-170100-
   Northeast Minnesota

CITY           SKY/WX    TMP DP  RH WIND       PRES   REMARKS
DULUTH         FAIR       3  -3  76 W8        30.43F WCI -10
6HR MIN TEMP:   3; 6HR MAX TEMP:  10;

ELY            FAIR       7   1  78 SW7       30.38F WCI  -5
HIBBING        FAIR       3  -3  76 SW3       30.43F
EVELETH        FAIR       4  -4  70 SW8       30.44F WCI -10
DULUTH HARBOR  FAIR      10   1  67 SW10      30.52F WCI  -3
TWO HARBORS    FAIR      10   1  67 SW7       30.42F WCI   0
GRAND MARAIS     N/A     14   5  67 VRB7G17   30.42F WCI   4
G MARAIS ARPRT CLOUDY     5  -4  66 W6        30.30F WCI  -6
$$
MNZ029>031-032-039>041-046>048-054>057-064-170100-
   West Central Minnesota

CITY           SKY/WX    TMP DP  RH WIND       PRES   REMARKS
FERGUS FALLS   FAIR       1  -6  71 S7        30.59F WCI -11
WHEATON        CLOUDY     7   0  72 S7        30.58F WCI  -5
MORRIS         CLOUDY     1  -2  85 S7        30.55F WCI -11
ALEXANDRIA     FAIR       1  -5  75 SW8       30.52F WCI -13
ELBOW LAKE     FAIR       1  -5  75 S6        30.55F HAZE    WCI -10
WADENA         FAIR       1  -8  66 W5        30.51F WCI  -8
GLENWOOD       FAIR      -2  -6  84 SW5       30.54F WCI -12
APPLETON       CLOUDY     3  -4  72 CALM      30.59F
BENSON         CLOUDY     1  -4  78 CALM      30.61S
ORTONVILLE     CLOUDY     5  -2  72 S5        30.56F WCI  -4
MADISON        CLOUDY     3  -2  78 S6        30.59F WCI  -8
WILLMAR        FAIR       1  -4  78 CALM      30.61F
$$
MNZ033>034-036-042>043-049>051-058-059-170100-
   Central Minnesota

CITY           SKY/WX    TMP DP  RH WIND       PRES   REMARKS
ST CLOUD       FAIR       2  -4  76 SW5       30.57F WCI  -8
6HR MIN TEMP:   0; 6HR MAX TEMP:   6;

SAUK CENTRE      N/A      0  -5  78 SW6       30.55F WCI -11
PAYNESVILLE    FAIR      -1  -5  83 SW6       30.57F WCI -13
AITKIN         FAIR       3  -6  66 SW3       30.49F
PINE RIVER     FAIR       5  -6  61 W6        30.51F WCI  -6
BRAINERD       FAIR       2  -7  66 SW6       30.51F WCI  -9
STAPLES        FAIR       1  -6  71 W3        30.52F
LONG PRAIRIE   FAIR       3  -4  72 CALM      30.53F
LITTLE FALLS   FAIR       1  -9  60 CALM      30.55F
LITCHFIELD     FAIR       1  -2  85 CALM      30.59F
BUFFALO        FAIR       3  -4  74 S3        30.61S
MAPLE LAKE     FAIR       2  -2  83 MISG      30.59F
HUTCHINSON     FAIR       1  -4  81 W6        30.61F WCI -11
$$
MNZ037-044-045-052-053-170100-
   East Central Minnesota

CITY           SKY/WX    TMP DP  RH WIND       PRES   REMARKS
PRINCETON      FAIR       0  -8  71 CALM      30.57F
MORA           FAIR       5  -4  66 SW3       30.56F
CAMBRIDGE        N/A      3  -6  66 CALM      30.58F
RUSH CITY      FAIR       1  -5  74 SW3       30.57F
MOOSE LAKE     FAIR       7   0  72 W6        30.49F WCI  -3
HINCKLEY       FAIR       5   0  78 W3        30.53F
CLOQUET        FAIR       7  -2  66 SW7       30.46F WCI  -5
MCGREGOR       FAIR       7   0  72 SW5       30.50F WCI  -2
$$
MNZ071>073-080-081-089-090-097-098-170100-
   Southwest Minnesota

CITY           SKY/WX    TMP DP  RH WIND       PRES   REMARKS
MONTEVIDEO     CLOUDY     1  -8  66 CALM      30.60F
GRANITE FALLS  CLOUDY     5  -1  76 CALM      30.63S
CANBY          CLOUDY     8   1  73 CALM      30.60S
MARSHALL       CLOUDY     2  -3  80 S6        30.60F WCI  -9
REDWOOD FALLS  CLOUDY     2  -3  80 SW3       30.62F
OLIVIA         CLOUDY     1  -4  78 W5        30.60F WCI  -8
PIPESTONE      CLOUDY     1  -4  78 W7        30.56S WCI -11
WINDOM         CLOUDY     3  -9  55 SW5       30.59S WCI  -6
WORTHINGTON    CLOUDY     0  -4  83 W8        30.58F WCI -14
JACKSON        CLOUDY     3  -2  78 W5        30.59S WCI  -6
SLAYTON        CLOUDY     2  -2  82 SW7       30.57F WCI -10
$$
MNZ065>067-074>077-082>085-091>093-170100-
   South Central Minnesota

CITY           SKY/WX    TMP DP  RH WIND       PRES   REMARKS
MANKATO        FAIR      -1  -6  79 W7        30.62F WCI -14
NEW ULM        CLOUDY    -2  -8  78 W5        30.62F WCI -12
ST JAMES       CLOUDY     1  -4  78 CALM      30.63F
FAIRMONT       CLOUDY     1  -4  79 NW3       30.62F
FARIBAULT      FAIR       0  -6  78 CALM      30.60F
OWATONNA       FAIR      -2  -8  78 W6        30.60S WCI -14
WASECA         FAIR      -2  -8  78 SW6       30.63S WCI -14
ALBERT LEA     FAIR       0  -6  78 CALM      30.59F
$$
MNZ078>079-086>088-094>096-170100-
   Southeast Minnesota

CITY           SKY/WX    TMP DP  RH WIND       PRES   REMARKS
ROCHESTER      FAIR      -1  -4  87 W10       30.57S WCI -17
6HR MIN TEMP:  -1; 6HR MAX TEMP:   5; 6HR PCP: TRACE;

RED WING       FAIR       3  -6  66 W6        30.61S WCI  -8
STANTON        FAIR      -3  -8  77 SW5       30.60F WCI -13
DODGE CENTER   FAIR      -4  -8  84 W5        30.57S WCI -15
WINONA         FAIR       9   1  72 NW6       30.61S WCI  -1
AUSTIN         FAIR       0  -6  78 W5        30.59S WCI -10
PRESTON        FAIR       0  -4  83 W8        30.58R WCI -14
$$
ABBREVIATIONS USED IN REMARKS
   TC - TEMPERATURES IN CELSIUS
  WCI - WIND CHILL INDEX
   HX - HEAT INDEX
  VSB - VISIBILITY
$$



USA.gov is the U.S. government's official web portal to all federal, state and local government web resources and services.